CDT,Max TemperatureF,Mean TemperatureF,Min TemperatureF,Max Dew PointF,MeanDew PointF,Min DewpointF,Max Humidity, Mean Humidity, Min Humidity, Max Sea Level PressureIn, Mean Sea Level PressureIn, Min Sea Level PressureIn, Max VisibilityMiles, Mean VisibilityMiles, Min VisibilityMiles, Max Wind SpeedMPH, Mean Wind SpeedMPH, Max Gust SpeedMPH,PrecipitationIn, CloudCover, Events, WindDirDegrees
2011-9-1,100,87,73,71,68,66,84,60,35,29.97,29.92,29.86,10,10,9,16,9,22,0.00,0,,202
2011-9-2,98,86,73,69,66,62,79,56,33,29.94,29.90,29.86,10,10,7,13,7,17,0.00,0,,203
2011-9-3,95,81,67,72,67,63,93,68,42,29.92,29.88,29.81,10,6,1,40,5,51,1.08,4,Rain-Thunderstorm,295
2011-9-4,75,66,57,66,57,48,100,71,41,30.06,29.97,29.88,10,9,6,15,7,22,0.00,3,,333
2011-9-5,69,61,52,52,46,42,93,66,39,30.14,30.11,30.06,10,10,10,16,8,23,0.00,0,,19
2011-9-6,71,60,48,47,45,42,86,62,37,30.20,30.15,30.11,10,10,10,17,7,23,0.00,0,,35
2011-9-7,74,61,48,52,47,43,93,64,35,30.20,30.17,30.14,10,10,10,15,5,23,0.00,0,,5
2011-9-8,78,65,51,59,50,46,84,59,33,30.16,30.08,30.00,10,10,8,20,6,28,0.08,2,Rain,13
2011-9-9,70,65,60,63,60,55,93,85,76,29.98,29.94,29.92,10,10,9,10,4,14,0.02,8,Rain,23
2011-9-10,77,69,61,63,61,59,93,76,58,30.04,29.99,29.96,10,7,2,12,2,15,0.00,6,,52
2011-9-11,83,70,57,63,59,55,100,72,43,30.07,30.03,29.98,10,8,3,8,2,12,0.00,1,,298
2011-9-12,86,73,59,63,59,54,93,64,34,30.06,29.98,29.88,10,10,8,18,8,24,0.00,0,,223
2011-9-13,78,68,58,61,55,50,78,59,39,30.00,29.92,29.84,10,10,10,10,5,15,0.00,0,,302
2011-9-14,62,53,43,52,48,35,83,73,62,30.25,30.10,29.99,10,10,10,14,4,21,T,2,Rain,5
2011-9-15,62,51,40,39,34,30,79,56,32,30.40,30.34,30.25,10,10,9,15,5,21,0.00,0,,31
2011-9-16,61,56,50,40,39,35,66,53,40,30.37,30.32,30.27,10,10,10,9,6,13,T,6,,99
2011-9-17,71,62,52,48,45,41,77,56,35,30.28,30.22,30.16,10,10,10,13,6,18,0.00,7,,99
2011-9-18,66,62,58,65,60,46,93,75,56,30.15,30.02,29.94,10,6,1,12,7,16,1.00,8,Rain,150
2011-9-19,70,63,55,64,60,54,93,80,66,30.04,29.97,29.93,10,6,2,12,3,16,0.26,6,Rain,285
2011-9-20,77,64,50,60,53,50,100,72,43,30.07,30.03,29.93,10,4,0,13,5,17,0.00,2,Fog,188
2011-9-21,74,63,52,56,48,41,93,62,31,30.08,30.00,29.94,10,10,7,22,7,30,0.00,1,,266
2011-9-22,66,56,46,48,46,43,86,69,52,30.17,30.12,30.06,10,10,10,9,2,13,0.00,3,,289
2011-9-23,66,55,43,46,43,39,96,70,43,30.14,30.08,30.04,10,10,10,8,3,13,0.00,4,,1
2011-9-24,62,53,44,49,45,41,89,72,55,30.03,29.99,29.94,10,10,10,12,4,16,T,6,,14
2011-9-25,65,57,48,52,49,46,96,74,52,29.93,29.88,29.78,10,8,2,9,3,12,0.02,5,Rain,7
2011-9-26,56,52,47,54,50,46,93,83,72,29.75,29.65,29.59,10,6,2,24,12,32,1.14,7,Rain,240
2011-9-27,64,58,51,54,52,50,100,84,67,29.85,29.75,29.59,10,8,2,15,7,23,0.02,7,Rain,304
2011-9-28,72,61,49,54,50,47,93,70,47,29.85,29.83,29.81,10,10,7,13,3,20,0.00,1,,313
2011-9-29,75,62,49,56,46,36,96,62,27,29.86,29.82,29.76,10,10,6,23,9,37,T,2,,289
2011-9-30,66,56,45,41,38,33,66,51,36,30.17,30.05,29.88,10,10,10,18,9,31,0.00,0,,345